W2CS Westport MA US current weather conditions

sailwx.info

Wind from 280 at 1 knots gusting 6

Air temperature 4.4° C
Dewpoint 3.7° C

Last reported at 2020-Jan-25 13:10 UTC.
Time now 2020-Jan-25 13:42 UTC

Location: N 41°35' W 071°04'.
View on Google Maps.

See reports from other nearby stations

  
Tides and Currents Weather Stations Pressure Air Temp Water Temp Dewpoint Dewpoint Depression Visibility Wind Speed Wind Dir Waves Ship Positions
date/time (UTC)wind fromknots sea level pressurealtimeterstation pressurevisibilityair tempwater tempwave heightnotes
2020-Jan-25 13:10 280 1 gusting 6 4.4
2020-Jan-25 13:00 132 1 gusting 8 4.4
2020-Jan-25 12:49 130 0 gusting 8 3.9
2020-Jan-25 12:40 005 0 gusting 8 3.9
2020-Jan-25 12:29 015 0 gusting 5 3.9
2020-Jan-25 12:19 077 0 gusting 4 3.3
2020-Jan-25 12:09 150 0 gusting 4 3.3
2020-Jan-25 11:59 171 0 gusting 6 2.8
2020-Jan-25 11:49 067 2.8
2020-Jan-25 11:39 139 2.8
2020-Jan-25 11:29 024 2.2
2020-Jan-25 11:19 015 2.2
2020-Jan-25 11:09 130 0 gusting 2 2.2
2020-Jan-25 10:59 072 1.7
2020-Jan-25 10:49 094 1.1
2020-Jan-25 10:38 012 0.6
2020-Jan-25 10:28 048 -0.0
2020-Jan-25 10:18 317 -0.6
2020-Jan-25 10:08 355 -1.1
2020-Jan-25 09:57 355 -1.1
2020-Jan-25 09:48 355 -1.1
2020-Jan-25 09:38 351 -1.7
2020-Jan-25 09:28 351 -2.2
2020-Jan-25 09:17 351 -2.2
2020-Jan-25 09:08 351 -2.2
2020-Jan-25 08:57 351 -2.2
2020-Jan-25 08:47 351 -2.2
2020-Jan-25 08:37 351 -2.2
2020-Jan-25 08:28 351 -2.2
2020-Jan-25 08:17 351 -2.2
2020-Jan-25 08:08 351 -2.2
2020-Jan-25 07:58 351 -2.2
2020-Jan-25 07:48 351 -2.2
2020-Jan-25 07:38 351 -2.2
2020-Jan-25 07:27 351 -2.2
2020-Jan-25 07:18 351 -1.7
2020-Jan-25 07:07 351 -1.7
2020-Jan-25 06:57 351 -1.7
2020-Jan-25 06:47 351 -1.7
2020-Jan-25 06:37 351 -1.7
2020-Jan-25 06:27 351 -1.7
2020-Jan-25 06:17 351 -1.7
2020-Jan-25 06:06 119 -1.7
2020-Jan-25 05:56 119 -1.7
2020-Jan-25 05:46 119 -1.7
2020-Jan-25 05:36 119 -1.7
2020-Jan-25 05:26 119 -1.7
2020-Jan-25 05:16 119 -1.7
2020-Jan-25 05:06 119 -1.7
2020-Jan-25 04:56 119 -1.7
2020-Jan-25 04:45 119 -1.7
2020-Jan-25 04:36 119 -1.7
2020-Jan-25 04:25 119 -1.1
2020-Jan-25 04:16 119 -1.1
2020-Jan-25 04:06 119 -1.1
2020-Jan-25 03:55 119 -0.6
2020-Jan-25 03:45 119 -0.6
2020-Jan-25 03:35 119 -0.6
2020-Jan-25 03:25 119 -0.6
2020-Jan-25 03:15 126 -1.1
2020-Jan-25 03:06 126 -1.1
2020-Jan-25 02:56 126 -1.1
2020-Jan-25 02:46 126 -1.1
2020-Jan-25 02:35 126 -1.7
2020-Jan-25 02:25 126 -1.7
2020-Jan-25 02:15 126 -1.7
2020-Jan-25 02:05 126 -1.7
2020-Jan-25 01:54 126 -1.1
2020-Jan-25 01:44 126 -1.1
2020-Jan-25 01:34 126 -1.1
2020-Jan-25 01:25 126 -1.1
2020-Jan-25 01:15 126 -0.6
2020-Jan-25 01:04 126 -0.6
2020-Jan-25 00:55 126 -0.6
2020-Jan-25 00:44 126 -0.6
2020-Jan-25 00:34 126 -0.6
2020-Jan-25 00:24 126 -0.6
2020-Jan-25 00:14 126 -0.6
2020-Jan-25 00:04 126 -0.6
2020-Jan-24 23:54 126 -0.6
2020-Jan-24 23:44 126 -0.0
2020-Jan-24 23:34 126 -0.0
2020-Jan-24 23:24 126 0.6
2020-Jan-24 23:14 126 0.6
2020-Jan-24 23:04 126 0.6
2020-Jan-24 22:53 126 1.1
2020-Jan-24 22:43 126 1.7
2020-Jan-24 22:33 126 1.7
2020-Jan-24 22:22 126 2.2
2020-Jan-24 22:12 126 2.2
2020-Jan-24 22:02 126 2.8
2020-Jan-24 21:52 126 3.3
2020-Jan-24 21:42 080 3.9
2020-Jan-24 21:32 078 5.0
2020-Jan-24 21:23 077 5.6
2020-Jan-24 21:12 075 6.1
2020-Jan-24 21:03 075 6.7
2020-Jan-24 20:52 028 7.2
2020-Jan-24 20:42 086 7.8
2020-Jan-24 20:32 180 8.3
2020-Jan-24 20:21 142 8.9
2020-Jan-24 20:12 110 0 gusting 2 8.9
2020-Jan-24 20:01 157 9.4
2020-Jan-24 19:51 163 0 gusting 3 9.4
2020-Jan-24 19:41 112 0 gusting 3 9.4
2020-Jan-24 19:31 009 9.4
2020-Jan-24 19:21 169 10.0
2020-Jan-24 19:11 032 10.0
2020-Jan-24 19:00 107 0 gusting 4 10.0
2020-Jan-24 18:51 059 10.0
2020-Jan-24 18:41 117 0 gusting 4 10.0
2020-Jan-24 18:31 252 10.0
2020-Jan-24 18:21 211 10.0
2020-Jan-24 18:11 325 10.6
2020-Jan-24 18:01 152 10.6
2020-Jan-24 17:50 227 10.0
2020-Jan-24 17:40 194 9.4
2020-Jan-24 17:30 288 8.9
2020-Jan-24 17:21 288 8.9
2020-Jan-24 17:11 288 8.9
2020-Jan-24 17:00 281 8.3
2020-Jan-24 16:50 126 8.3
2020-Jan-24 16:41 062 7.8
2020-Jan-24 16:30 081 7.8
2020-Jan-24 16:20 157 7.2
2020-Jan-24 16:10 152 7.2
2020-Jan-24 16:00 168 6.7
2020-Jan-24 15:50 084 6.1
2020-Jan-24 15:39 084 6.1
2020-Jan-24 15:29 260 5.6
2020-Jan-24 15:19 260 5.0
2020-Jan-24 15:09 232 4.4
2020-Jan-24 14:59 232 3.9
2020-Jan-24 14:49 232 2.8
2020-Jan-24 14:39 232 1.7
2020-Jan-24 14:29 232 0.6
2020-Jan-24 14:19 232 -0.0
2020-Jan-24 14:09 232 -0.6
2020-Jan-24 13:58 223 -1.1
2020-Jan-24 13:48 223 -2.2
2020-Jan-24 13:38 223 -2.2
2020-Jan-24 13:29 223 -2.8
2020-Jan-24 13:19 223 -2.8
2020-Jan-24 13:08 223 -3.3
2020-Jan-24 12:58 223 -3.3
2020-Jan-24 12:48 223 -3.3
2020-Jan-24 12:38 223 -2.8
2020-Jan-24 12:28 223 -2.8
2020-Jan-24 12:18 223 -2.8
2020-Jan-24 12:08 223 -2.8
2020-Jan-24 11:58 223 -2.8
2020-Jan-24 11:48 223 -2.8
2020-Jan-24 11:37 223 -2.8
2020-Jan-24 11:27 223 -2.8
2020-Jan-24 11:17 223 -2.2
2020-Jan-24 11:07 223 -2.2
2020-Jan-24 10:57 223 -2.2
2020-Jan-24 10:47 223 -2.2
2020-Jan-24 10:37 223 -2.2
2020-Jan-24 10:27 223 -2.2
2020-Jan-24 10:16 223 -1.7
2020-Jan-24 10:06 223 -1.7
2020-Jan-24 09:57 223 -1.7
2020-Jan-24 09:47 223 -1.7
2020-Jan-24 09:37 223 -1.7
2020-Jan-24 09:27 223 -1.7
2020-Jan-24 09:16 223 -2.2
2020-Jan-24 09:06 223 -2.2
2020-Jan-24 08:56 223 -2.2
2020-Jan-24 08:46 223 -2.2
2020-Jan-24 08:36 223 -2.2
2020-Jan-24 08:26 223 -1.7
2020-Jan-24 08:15 223 -1.7
2020-Jan-24 08:06 223 -1.7
2020-Jan-24 07:56 223 -1.7
2020-Jan-24 07:46 223 -1.7
2020-Jan-24 07:36 223 -1.7
2020-Jan-24 07:26 223 -1.7
2020-Jan-24 07:16 223 -1.7
2020-Jan-24 07:06 223 -1.7
2020-Jan-24 06:55 223 -1.7
2020-Jan-24 06:45 223 -1.7
2020-Jan-24 06:34 223 -1.7
2020-Jan-24 06:24 223 -1.7
2020-Jan-24 06:14 223 -1.1
2020-Jan-24 06:05 223 -1.1
2020-Jan-24 05:55 223 -1.1
2020-Jan-24 05:45 223 -1.1
2020-Jan-24 05:35 223 -0.6
2020-Jan-24 05:25 223 -0.6
2020-Jan-24 05:15 223 -1.1
2020-Jan-24 05:05 223 -1.1
2020-Jan-24 04:54 223 -1.1
2020-Jan-24 04:45 223 -0.6
2020-Jan-24 04:34 223 -0.6
2020-Jan-24 04:25 223 -0.6
2020-Jan-24 04:15 223 -0.6
2020-Jan-24 04:05 223 -0.0
2020-Jan-24 03:55 223 -0.0
2020-Jan-24 03:45 223 -0.0
2020-Jan-24 03:35 223 -0.0
2020-Jan-24 03:26 223 -0.0
2020-Jan-24 03:16 223 -0.0
2020-Jan-24 03:06 223 -0.0
2020-Jan-24 02:55 223 0.6
2020-Jan-24 02:46 223 -0.0
2020-Jan-24 02:36 223 -0.0
2020-Jan-24 02:26 223 -0.0
2020-Jan-24 02:16 223 -0.0
2020-Jan-24 02:05 223 0.6
2020-Jan-24 01:55 223 0.6
2020-Jan-24 01:45 223 -0.0
2020-Jan-24 01:35 223 -0.0
2020-Jan-24 01:25 223 0.6
2020-Jan-24 01:15 223 -0.0
2020-Jan-24 01:04 262 0.6
2020-Jan-24 00:54 262 0.6
2020-Jan-24 00:44 302 0.6
2020-Jan-24 00:34 303 -0.0
2020-Jan-24 00:24 303 -0.0
2020-Jan-24 00:14 303 -0.6
2020-Jan-24 00:04 303 -0.6
2020-Jan-23 23:54 303 -0.6
2020-Jan-23 23:43 303 -0.6
2020-Jan-23 23:34 303 -0.6
2020-Jan-23 23:23 303 -0.6
2020-Jan-23 23:13 303 -0.6
2020-Jan-23 23:04 303 -0.6
2020-Jan-23 22:54 303 -0.0
2020-Jan-23 22:44 303 -0.0
2020-Jan-23 22:34 303 -0.0
2020-Jan-23 22:24 303 -0.0
2020-Jan-23 22:13 303 0.6
2020-Jan-23 22:03 303 0.6
2020-Jan-23 21:53 303 1.1
2020-Jan-23 21:43 303 1.1
2020-Jan-23 21:33 303 1.7
2020-Jan-23 21:24 303 2.2
2020-Jan-23 21:13 303 2.8
2020-Jan-23 21:03 303 3.3
2020-Jan-23 20:53 303 3.9
2020-Jan-23 20:43 303 4.4
2020-Jan-23 20:34 303 5.0
2020-Jan-23 20:24 303 5.0
2020-Jan-23 20:13 303 5.6
2020-Jan-23 20:03 303 5.6
2020-Jan-23 19:53 303 6.1
2020-Jan-23 19:43 303 6.1
2020-Jan-23 19:33 255 6.7
2020-Jan-23 19:23 255 6.7
2020-Jan-23 19:13 243 7.2
2020-Jan-23 19:02 243 6.7
2020-Jan-23 18:52 243 6.7
2020-Jan-23 18:42 243 6.7
2020-Jan-23 18:32 243 7.2
2020-Jan-23 18:22 243 7.8
2020-Jan-23 18:11 236 7.8
2020-Jan-23 18:01 197 7.2
2020-Jan-23 17:51 255 6.7
2020-Jan-23 17:41 240 6.7
2020-Jan-23 17:31 248 6.1
2020-Jan-23 17:21 244 6.1
2020-Jan-23 17:10 229 6.1
2020-Jan-23 17:01 253 5.6
2020-Jan-23 16:51 261 5.6
2020-Jan-23 16:41 251 5.0
2020-Jan-23 16:31 265 5.0
2020-Jan-23 16:21 273 5.0
2020-Jan-23 16:10 277 5.0
2020-Jan-23 16:00 255 5.0
2020-Jan-23 15:50 244 4.4
2020-Jan-23 15:40 241 4.4
2020-Jan-23 15:30 277 3.9
2020-Jan-23 15:20 276 3.3
2020-Jan-23 15:10 276 2.2
2020-Jan-23 14:59 045 1.7
2020-Jan-23 14:49 075 0.6
2020-Jan-23 14:39 075 -0.0
2020-Jan-23 14:29 089 -1.1
2020-Jan-23 14:19 089 -1.7
2020-Jan-23 14:09 089 -1.7
2020-Jan-23 13:59 089 -2.2
2020-Jan-23 13:49 089 -3.3
2020-Jan-23 13:39 089 -3.9
2020-Jan-23 13:29 089 -4.4
2020-Jan-23 13:18 089 -5.0
2020-Jan-23 13:08 089 -6.1